Puerto Plata, Dominican Republic

2:37 PM AST on May 23, 2018 (GMT -0400)
Gregorio Luperon International

Weather History for MDPP - November, 2011

Change the Weather History Date:

Thursday, November 24, 2011

  Actual Average Record
Temperature  
Mean Temperature 77 °F -  
Max Temperature 86 °F 82 °F 89 °F (1997)
Min Temperature 68 °F 69 °F 68 °F (2004)
Cooling Degree Days 12    
Growing Degree Days 27 (Base 50)    
Moisture  
Dew Point 73 °F    
Average Humidity 79    
Maximum Humidity 94    
Minimum Humidity 61    
Precipitation  
Precipitation 0.00 in - - ()
Sea Level Pressure  
Sea Level Pressure 30.01 in    
Wind  
Wind Speed 11 mph ()    
Max Wind Speed 130 mph    
Max Gust Speed -    
Visibility 7.2 miles    
Events      
Averages and records for this station are not official NWS values.
T = Trace of Precipitation, MM = Missing Value Source: Averaged Metar Reports

Daily Weather History Graph

Daily Weather History Graph

Search for Another Location

Airport or City:

Astronomy

Nov. 24, 2011 Rise Set
Actual Time 6:55 AM AST 6:01 PM AST
Civil Twilight 6:32 AM AST 6:25 PM AST
Nautical Twilight 6:05 AM AST 6:52 PM AST
Astronomical Twilight 5:38 AM AST 7:18 PM AST
Moon 6:08 AM AST (11/24) 5:33 PM AST (11/24)
Length of Visible Light 11h 52m
Length of Day
11h 05m
Waning Crescent, 1% of the Moon is Illuminated
Nov 24
Waning Crescent
Nov 25
New
Dec 2
First Quarter
Dec 10
Full
Dec 17
Last Quarter

Hourly Weather History & Observations

Time (AST) Temp. Heat Index Dew Point Humidity Pressure Visibility Wind Dir Wind Speed Gust Speed Precip Events Conditions
2:00 AM 71 °F - 70 °F 94% 30.04 in 10 mi Calm Calm - -   Partly Cloudy
2:00 AM 71.6 °F - 69.8 °F 94% 30.01 in 6.2 mi Calm Calm - N/A   Scattered Clouds
5:00 AM - - - %  in 6 mi SE 129.8 mph - -  
5:00 AM - - - N/A% - - North - - N/A   Unknown
8:00 AM 71 °F - 68 °F 89% 30.03 in 10 mi Calm Calm - -   Scattered Clouds
8:00 AM 69.8 °F - 68.0 °F 94% 30.01 in 6.2 mi Calm Calm - N/A   Partly Cloudy
9:00 AM 73.4 °F - 71.6 °F 94% 30.04 in 6.2 mi Calm Calm - N/A   Partly Cloudy
10:00 AM 82.4 °F 88.2 °F 73.4 °F 74% 30.06 in 6.2 mi Calm Calm - N/A   Partly Cloudy
11:00 AM 86.0 °F 95.1 °F 75.2 °F 70% 30.04 in 6.2 mi Calm Calm - N/A   Partly Cloudy
12:00 PM 84.2 °F 92.3 °F 75.2 °F 74% 30.04 in 6.2 mi ENE 11.5 mph - N/A   Partly Cloudy
1:00 PM 86.0 °F 95.1 °F 75.2 °F 70% 30.01 in 6.2 mi NNE 5.8 mph - N/A   Partly Cloudy
2:00 PM 86 °F - 74 °F 61% 30.00 in 10 mi North 6.7 mph - -   Scattered Clouds
2:00 PM 86.0 °F 95.1 °F 75.2 °F 70% 29.98 in 6.2 mi North 6.9 mph - N/A   Partly Cloudy
3:00 PM 84.2 °F 92.3 °F 75.2 °F 74% 29.98 in 6.2 mi NNE 6.9 mph - N/A   Partly Cloudy
4:00 PM 82.4 °F 88.2 °F 73.4 °F 74% 29.98 in 6.2 mi NNE 11.5 mph - N/A   Partly Cloudy
5:00 PM 83 °F - 74 °F 67% 29.99 in 10 mi ENE 8.9 mph - -   Partly Cloudy
5:00 PM 82.4 °F 88.2 °F 73.4 °F 74% 29.98 in 6.2 mi ENE 9.2 mph - N/A   Scattered Clouds
6:00 PM 80.6 °F 85.4 °F 73.4 °F 79% 29.98 in 6.2 mi NNE 6.9 mph - N/A   Mostly Cloudy
7:00 PM 80.6 °F 85.4 °F 73.4 °F 79% 30.01 in 6.2 mi Calm Calm - N/A   Mostly Cloudy
8:00 PM 80 °F - 74 °F 76% 30.03 in 10 mi Calm Calm - -   Partly Cloudy
8:00 PM 78.8 °F - 73.4 °F 83% 30.01 in 6.2 mi Calm Calm - N/A   Scattered Clouds
11:00 PM 80 °F - 74 °F 77% 30.05 in 10 mi Calm Calm - -   Partly Cloudy
11:00 PM 78.8 °F - 73.4 °F 83% 30.04 in 6.2 mi Calm Calm - N/A   Scattered Clouds